{"data":{"norad_id":65658,"intl_designator":"2025-211G","name":"STARLINK-35282","alt_names":[],"object_type":"PAYLOAD","status":"ACTIVE","operator":null,"country":"US","launch_date":"2025-09-19","launch_site_code":"AFWTR","launch_vehicle":null,"mission":null,"orbit_class":"UNKNOWN","rcs_meters":null,"size_class":null,"mass_kg":null,"dimensions":null,"purposes":["comms"],"wikipedia_slug":null,"has_3d_model":false,"image_url":null,"decayed_at":null,"tle_current":{"epoch":"2026-09-20T20:35:58.600896Z","epoch_age_seconds":77825,"freshness":"FRESH","line1":"1 65658U 25211G   26263.85831714  .00013348  00000+0  41486-3 0  9991","line2":"2 65658  97.2836 304.0142 0000809  99.3146 260.8189 15.33459925 56573","mean_motion":15.33459925,"eccentricity":8.09e-5,"inclination_deg":97.2836,"raan_deg":304.0142,"arg_perigee_deg":99.3146,"mean_anomaly_deg":260.8189,"bstar":0.00041486,"rev_number":5657,"period_min":93.905290677877,"perigee_km":464.94511840525,"apogee_km":466.0524186726,"semimajor_km":6843.6357685389,"source":"CELESTRAK","updated_at":"2026-09-21T09:00:35.680295Z"}}}